KB1NHL Weather Reports


Display with metric or nautical units.
time (UTC)temp
F
wind
direction
speed
MPH
gust
MPH
rain 1hr
in
rain 24hr
in
rain mn
in
humidity
%
barometer
mb
20260502223915 48 313 0.0 1.0 0.00 0.04 0.04 87 1011.0
20260502223426 48 313 0.0 3.0 0.00 0.04 0.04 87 1011.0
20260502222918 48 313 2.0 3.0 0.00 0.04 0.04 86 1010.9
20260502222450 48 310 0.0 4.0 0.00 0.04 0.04 85 1010.9
20260502221941 48 291 2.0 5.0 0.00 0.04 0.04 85 1011.2
20260502221431 49 263 3.0 8.0 0.00 0.04 0.04 83 1011.2
20260502220926 49 270 6.0 10.0 0.00 0.04 0.04 82 1011.1
20260502220417 49 259 7.0 10.0 0.00 0.04 0.04 83 1011.2
20260502215927 50 289 3.0 12.0 0.00 0.04 0.04 83 1011.2
20260502215418 50 268 6.0 12.0 0.00 0.04 0.04 83 1011.1
20260502214929 50 259 2.0 6.0 0.00 0.04 0.04 85 1011.1
20260502214420 50 247 4.0 10.0 0.00 0.04 0.04 85 1011.0
20260502213931 50 170 5.0 10.0 0.00 0.04 0.04 84 1011.0
20260502213422 50 189 4.0 8.0 0.00 0.04 0.04 84 1010.9
20260502212917 50 176 4.0 12.0 0.00 0.04 0.04 84 1010.8
20260502212448 50 112 7.0 13.0 0.00 0.04 0.04 84 1010.9
20260502211918 50 133 9.0 14.0 0.00 0.04 0.04 83 1010.9
20260502211430 51 169 7.0 14.0 0.00 0.04 0.04 83 1010.9
20260502210921 51 124 7.0 12.0 0.00 0.04 0.04 82 1010.9
20260502210411 51 128 6.0 13.0 0.00 0.04 0.04 82 1010.9
20260502205923 51 115 8.0 13.0 0.00 0.04 0.04 81 1010.8
20260502205413 51 154 9.0 13.0 0.00 0.04 0.04 81 1010.9
20260502204924 51 100 7.0 13.0 0.00 0.04 0.04 81 1010.9
20260502204420 51 174 9.0 13.0 0.00 0.04 0.04 80 1010.9
20260502203912 51 169 6.0 14.0 0.00 0.04 0.04 80 1010.8
20260502203423 51 161 7.0 16.0 0.00 0.04 0.04 80 1010.8
20260502202914 52 152 8.0 17.0 0.00 0.04 0.04 78 1010.9
20260502202447 52 143 8.0 15.0 0.00 0.04 0.04 78 1010.9
20260502201916 52 191 7.0 17.0 0.00 0.04 0.04 79 1011.0
20260502201427 52 176 10.0 17.0 0.00 0.04 0.04 79 1010.9
20260502200918 52 165 9.0 16.0 0.00 0.04 0.04 79 1011.0
20260502200429 52 152 8.0 16.0 0.00 0.04 0.04 78 1011.2
20260502195924 51 143 7.0 16.0 0.00 0.04 0.04 79 1011.2
20260502195415 52 149 10.0 16.0 0.00 0.04 0.04 77 1011.2
20260502194926 52 191 10.0 18.0 0.00 0.04 0.04 78 1011.2
20260502194417 52 170 10.0 22.0 0.00 0.04 0.04 77 1011.3
20260502193928 52 180 13.0 19.0 0.00 0.04 0.04 77 1011.3
20260502193420 52 142 11.0 19.0 0.00 0.04 0.04 77 1011.3
20260502192930 52 162 13.0 19.0 0.00 0.04 0.04 78 1011.4
20260502192441 52 205 11.0 17.0 0.00 0.04 0.04 78 1011.5
20260502191930 52 207 9.0 16.0 0.00 0.04 0.04 81 1011.4
20260502191425 52 189 9.0 17.0 0.00 0.04 0.04 80 1011.6
20260502190915 51 130 9.0 17.0 0.01 0.04 0.04 81 1011.7
20260502190427 51 178 9.0 15.0 0.01 0.04 0.04 80 1011.7
20260502185919 51 114 6.0 12.0 0.01 0.04 0.04 82 1011.8
20260502185429 50 318 5.0 14.0 0.01 0.04 0.04 83 1011.7
20260502184920 50 204 9.0 14.0 0.01 0.04 0.04 82 1011.8
20260502184411 49 133 6.0 12.0 0.02 0.04 0.04 84 1011.8
20260502183944 49 178 7.0 13.0 0.02 0.04 0.04 86 1011.9
20260502183414 49 180 7.0 15.0 0.02 0.04 0.04 85 1012.0
20260502182928 49 183 5.0 13.0 0.02 0.04 0.04 88 1011.9
20260502182420 49 178 8.0 13.0 0.02 0.04 0.04 87 1011.9
20260502181930 49 131 7.0 11.0 0.03 0.04 0.04 87 1012.1
20260502181421 49 144 5.0 13.0 0.02 0.03 0.03 86 1012.0
20260502180912 49 214 7.0 13.0 0.02 0.03 0.03 85 1012.0
20260502180424 49 218 5.0 11.0 0.02 0.03 0.03 85 1012.1
20260502170441 50 160 9.0 16.0 0.01 0.01 0.01 76 1012.2
20260502163921 50 251 3.0 6.0 0.01 0.01 0.01 76 1012.3
20260502163412 50 246 5.0 9.0 0.01 0.01 0.01 75 1012.1
20260502162924 50 242 5.0 10.0 0.01 0.01 0.01 73 1012.1
20260502162416 51 201 6.0 13.0 0.01 0.01 0.01 70 1012.1
20260502161948 51 213 7.0 15.0 0.01 0.01 0.01 67 1012.1
20260502161419 52 202 6.0 11.0 0.01 0.01 0.01 70 1012.1
20260502160914 52 134 4.0 10.0 0.00 0.00 0.00 75 1012.6
20260502160426 52 109 6.0 10.0 0.00 0.00 0.00 73 1012.7
20260502151929 53 198 6.0 11.0 0.00 0.00 0.00 68 1012.8
20260502151421 52 200 7.0 11.0 0.00 0.00 0.00 68 1012.7
20260502150912 52 56 5.0 13.0 0.00 0.00 0.00 76 1012.9
20260502150424 52 202 7.0 13.0 0.00 0.00 0.00 74 1013.0
20260502130418 48 254 3.0 9.0 0.00 0.00 0.00 83 1014.0
20260502123427 49 256 10.0 16.0 0.00 0.00 0.00 80 1013.9
20260502122919 49 253 8.0 15.0 0.00 0.00 0.00 79 1013.8
20260502122414 49 245 10.0 15.0 0.00 0.00 0.00 79 1013.7
20260502121947 49 253 10.0 12.0 0.00 0.00 0.00 79 1013.6
20260502121418 49 196 8.0 11.0 0.00 0.00 0.00 78 1013.5
20260502120950 49 256 7.0 11.0 0.00 0.00 0.00 78 1013.3
20260502120442 49 243 6.0 11.0 0.00 0.00 0.00 78 1013.2
20260502115913 49 197 6.0 12.0 0.00 0.00 0.00 78 1013.1
20260502115425 49 233 6.0 9.0 0.00 0.00 0.00 78 1013.2
20260502114917 49 209 6.0 9.0 0.00 0.00 0.00 78 1013.0
20260502114428 49 207 4.0 7.0 0.00 0.00 0.00 79 1012.9
20260502113920 48 236 4.0 8.0 0.00 0.00 0.00 79 1012.8
20260502113433 48 196 5.0 8.0 0.00 0.00 0.00 80 1012.8
20260502112928 47 192 4.0 6.0 0.00 0.00 0.00 80 1012.8
20260502112419 47 284 3.0 6.0 0.00 0.00 0.00 80 1012.6
20260502111911 47 207 3.0 9.0 0.00 0.00 0.00 80 1012.7
20260502111444 47 216 3.0 9.0 0.00 0.00 0.00 80 1012.8
20260502110915 47 212 4.0 8.0 0.00 0.00 0.00 80 1012.9
20260502110427 47 219 5.0 8.0 0.00 0.00 0.00 80 1012.8
20260502105919 47 211 5.0 9.0 0.00 0.00 0.00 79 1012.8
20260502105410 47 211 5.0 10.0 0.00 0.00 0.00 79 1012.8
20260502104923 47 204 6.0 10.0 0.00 0.00 0.00 79 1012.8
20260502104418 47 206 6.0 10.0 0.00 0.00 0.00 79 1012.8
20260502103927 47 216 6.0 13.0 0.00 0.00 0.00 78 1012.6
20260502103419 47 205 7.0 13.0 0.00 0.00 0.00 78 1012.6
20260502102911 47 181 5.0 10.0 0.00 0.00 0.00 78 1012.7
20260502102423 47 188 6.0 11.0 0.00 0.00 0.00 77 1012.8
20260502101914 47 204 7.0 10.0 0.00 0.00 0.00 77 1012.7
20260502101427 47 193 6.0 8.0 0.00 0.00 0.00 77 1012.5
20260502100918 47 192 5.0 9.0 0.00 0.00 0.00 77 1012.5
20260502100414 47 193 4.0 9.0 0.00 0.00 0.00 77 1012.4
20260502091414 47 221 5.0 8.0 0.00 0.00 0.00 78 1012.2
20260502090948 47 206 4.0 7.0 0.00 0.00 0.00 78 1012.2
20260502090438 47 184 5.0 11.0 0.00 0.00 0.00 78 1012.3
20260502071415 49 258 3.0 7.0 0.00 0.00 0.00 69 1012.4
20260502070926 49 233 4.0 7.0 0.00 0.00 0.00 69 1012.4
20260502070437 49 237 4.0 8.0 0.00 0.00 0.00 69 1012.4
20260502065927 49 213 3.0 8.0 0.00 0.00 0.00 68 1012.4
20260502065439 50 273 4.0 10.0 0.00 0.00 0.00 68 1012.5
20260502064913 50 243 6.0 10.0 0.00 0.00 0.00 68 1012.5
20260502064424 50 244 6.0 10.0 0.00 0.00 0.00 68 1012.6
20260502063914 50 240 6.0 9.0 0.00 0.00 0.00 68 1012.6
20260502063447 50 246 5.0 12.0 0.00 0.00 0.00 68 1012.7
20260502062916 50 235 8.0 12.0 0.00 0.00 0.00 68 1012.6
20260502062427 50 230 7.0 11.0 0.00 0.00 0.00 68 1012.6
20260502061940 50 235 5.0 9.0 0.00 0.00 0.00 67 1012.6
20260502060921 50 223 5.0 9.0 0.00 0.00 0.00 67 1012.5
20260502060433 49 225 4.0 8.0 0.00 0.00 0.00 67 1012.5
20260502055922 49 235 4.0 9.0 0.00 0.00 0.00 67 1012.5
20260502055417 49 232 4.0 9.0 0.00 0.00 0.00 67 1012.5
20260502054928 49 307 3.0 6.0 0.00 0.00 0.00 66 1012.4
20260502054419 49 214 4.0 8.0 0.00 0.00 0.00 66 1012.5
20260502053911 49 217 4.0 7.0 0.00 0.00 0.00 66 1012.5
20260502053422 49 236 4.0 7.0 0.00 0.00 0.00 66 1012.6
20260502052912 49 231 5.0 8.0 0.00 0.00 0.00 66 1012.6
20260502052423 49 237 5.0 8.0 0.00 0.00 0.00 66 1012.6
20260502051914 50 207 6.0 9.0 0.00 0.00 0.00 65 1012.7
20260502051446 50 204 6.0 9.0 0.00 0.00 0.00 65 1012.7
20260502050920 50 199 3.0 6.0 0.00 0.00 0.00 65 1012.7
20260502050411 50 204 3.0 5.0 0.00 0.00 0.00 64 1012.6
20260502045922 50 199 3.0 5.0 0.00 0.00 0.00 64 1012.7
20260502045412 50 202 4.0 7.0 0.00 0.00 0.00 63 1012.6
20260502044923 50 249 4.0 7.0 0.00 0.00 0.00 63 1012.5
20260502044413 50 213 3.0 9.0 0.00 0.00 0.00 62 1012.6
20260502043924 50 252 5.0 10.0 0.00 0.00 0.00 62 1012.6
20260502043415 51 233 6.0 10.0 0.00 0.00 0.00 62 1012.6
20260502042946 51 249 5.0 9.0 0.00 0.00 0.00 61 1012.7
20260502042419 51 228 7.0 13.0 0.00 0.00 0.00 61 1012.7
20260502041910 51 216 7.0 13.0 0.00 0.00 0.00 60 1012.8
20260502041421 51 230 8.0 11.0 0.00 0.00 0.00 60 1012.7
20260502040912 51 231 8.0 11.0 0.00 0.00 0.00 59 1012.6
20260502040423 51 235 7.0 11.0 0.00 0.00 0.00 58 1012.7
20260502035935 51 235 7.0 12.0 0.00 0.00 0.00 58 1012.7
20260502035425 51 240 8.0 12.0 0.00 0.00 0.00 57 1012.7
20260502034915 51 240 7.0 11.0 0.00 0.00 0.00 57 1012.5
20260502034425 52 238 7.0 11.0 0.00 0.00 0.00 57 1012.6
20260502033920 52 247 8.0 14.0 0.00 0.00 0.00 56 1012.6
20260502033412 52 247 9.0 14.0 0.00 0.00 0.00 56 1012.5
20260502032922 52 245 8.0 14.0 0.00 0.00 0.00 56 1012.7
20260502032434 52 242 8.0 14.0 0.00 0.00 0.00 55 1012.7
20260502031922 52 239 9.0 16.0 0.00 0.00 0.00 54 1012.7
20260502031433 52 219 9.0 16.0 0.00 0.00 0.00 54 1012.7
20260502030924 52 240 9.0 15.0 0.00 0.00 0.00 53 1012.7
20260502030435 52 252 9.0 16.0 0.00 0.00 0.00 52 1012.6
20260502025925 53 237 9.0 16.0 0.00 0.00 0.00 51 1012.3
20260502025416 53 239 10.0 16.0 0.00 0.00 0.00 51 1012.5
20260502024948 53 247 9.0 15.0 0.00 0.00 0.00 50 1012.6
20260502024438 53 242 11.0 15.0 0.00 0.00 0.00 50 1012.6
20260502023911 53 249 9.0 14.0 0.00 0.00 0.00 49 1012.4
20260502023422 53 234 9.0 15.0 0.00 0.00 0.00 48 1012.5
20260502022913 53 249 11.0 15.0 0.00 0.00 0.00 48 1012.5
20260502022425 53 209 10.0 18.0 0.00 0.00 0.00 47 1012.5
20260502021916 54 209 10.0 14.0 0.00 0.00 0.00 45 1012.5
20260502021408 54 248 8.0 12.0 0.00 0.00 0.00 43 1012.5
20260502020920 56 206 8.0 12.0 0.00 0.00 0.00 41 1012.4
20260502020412 57 233 5.0 7.0 0.00 0.00 0.00 36 1012.2
20260502015928 57 234 4.0 6.0 0.00 0.00 0.00 36 1012.1
20260502015419 57 237 4.0 5.0 0.00 0.00 0.00 35 1012.1
20260502014911 57 233 4.0 4.0 0.00 0.00 0.00 35 1012.1
20260502014423 57 242 4.0 5.0 0.00 0.00 0.00 35 1012.1
20260502013915 57 243 5.0 5.0 0.00 0.00 0.00 35 1012.1
20260502013427 57 249 5.0 5.0 0.00 0.00 0.00 35 1012.2
20260502012919 57 249 5.0 6.0 0.00 0.00 0.00 35 1012.2
20260502012411 57 249 4.0 6.0 0.00 0.00 0.00 35 1012.2
20260502011927 57 249 5.0 6.0 0.00 0.00 0.00 35 1012.2
20260502011418 57 242 4.0 5.0 0.00 0.00 0.00 35 1012.0
20260502010909 57 244 4.0 5.0 0.00 0.00 0.00 35 1012.0
20260502010421 57 252 3.0 4.0 0.00 0.00 0.00 35 1011.9
20260502005913 58 265 4.0 4.0 0.00 0.00 0.00 35 1011.7
20260502005425 58 268 3.0 4.0 0.00 0.00 0.00 35 1011.7
20260502004917 57 275 2.0 3.0 0.00 0.00 0.00 35 1011.7
20260502004449 57 297 1.0 2.0 0.00 0.00 0.00 35 1011.6
20260502003919 57 298 2.0 2.0 0.00 0.00 0.00 35 1011.6
20260502003415 58 291 1.0 3.0 0.00 0.00 0.00 35 1011.5
20260502002927 57 281 2.0 3.0 0.00 0.00 0.00 35 1011.4
20260502002418 57 275 2.0 3.0 0.00 0.00 0.00 35 1011.4
20260502001910 57 295 1.0 4.0 0.00 0.00 0.00 35 1011.2
20260502001422 58 286 2.0 4.0 0.00 0.00 0.00 35 1011.0
20260502000935 58 276 2.0 4.0 0.00 0.00 0.00 35 1011.0
20260502000426 58 263 1.0 3.0 0.00 0.00 0.00 35 1010.8
20260501235917 58 307 1.0 3.0 0.00 0.00 0.00 35 1010.8
20260501235413 58 298 2.0 3.0 0.00 0.00 0.00 34 1010.8
20260501234945 58 285 2.0 5.0 0.00 0.00 0.00 34 1010.8
20260501234436 58 280 2.0 6.0 0.00 0.00 0.00 34 1010.7
20260501233927 59 264 4.0 7.0 0.00 0.00 0.00 34 1010.6
20260501233418 59 260 3.0 9.0 0.00 0.00 0.00 33 1010.6
20260501232910 60 254 3.0 7.0 0.00 0.00 0.00 33 1010.5
20260501232422 60 278 3.0 8.0 0.00 0.00 0.00 33 1010.4
20260501231914 60 260 5.0 8.0 0.00 0.00 0.00 33 1010.3
20260501231426 60 283 5.0 9.0 0.00 0.00 0.00 32 1010.3
20260501230938 60 254 6.0 9.0 0.00 0.00 0.00 32 1010.3
20260501230413 61 299 6.0 11.0 0.00 0.00 0.00 32 1010.2
20260501225925 61 278 6.0 10.0 0.00 0.00 0.00 32 1010.2
20260501225437 61 255 4.0 7.0 0.00 0.00 0.00 32 1010.1
20260501224908 61 338 2.0 10.0 0.00 0.00 0.00 31 1010.0
20260501224420 61 280 4.0 15.0 0.00 0.00 0.00 33 1010.0